Content
SEND FEEDBACK

Daily
Averages
Monthly
Summary
Australia

LISMORE, NEW SOUTH WALES


Home > Oceania > Australia > New South Wales
Elevation: 36 feet     Latitude: 28 48S     Longitude: 153 15E

WEATHER
 
SELECT A DAY
Number of Records: 190,846;   Date Range: 10/20/03 - 8/31/14
 
SHARE

PRINT THIS DATA

[ ← Previous Day ]
WEATHER ALMANAC - FEBRUARY 13, 2013
[ Next Day → ]
[ °C ]   °F
Weather ElementAverageHighLow
Temperature72.4 °F80.6 °F (12:30 pm)66.2 °F (12:30 am)
Dewpoint62.5 °F68 °F (10:00 am)59 °F (12:00 pm)
Humidity71.3 %94 % (7:30 am)43 % (12:00 pm)
Barometer30.07 in30.12 in (10:00 pm)30.01 in (1:30 am)
Wind Speed12.2 mph23 mph (3:00 pm)
Wind Gust28.8 mph (6:00 pm)
Weather ElementAverage
Visibility6 mi
Wind DirectionS (182.6 °)

Weather ElementTotal
Precipitation---
Cooling Degree Days8.4 (Base 65)
Growing Degree Days23.4 (Base 50)
Averaged from 54 records on February 13, 2013
WEATHER CONDITIONS BREAKOUT
WIND DIRECTION BREAKOUT
WEATHER BY HOUR - FEBRUARY 13, 2013
[ °C ]   °F
Local TimeTemperatureDewpointHumidityBarometerVisibilityWind DirectionWind SpeedGust SpeedPrecipitationEventsConditions
12:00 AM69.8 °F62.6 °F78 %30.04 in6.2 miSouth (180°)4.6 mph
12:30 AM66.2 °F60.8 °F83 %30.04 in6.2 miSouth (170°)4.6 mphScattered Clouds
1:00 AM66.2 °F62.6 °F88 %30.04 in6.2 miSW (220°)3.5 mph
1:30 AM66.2 °F62.6 °F88 %30.01 in6.2 miSW (220°)3.5 mphScattered Clouds
2:00 AM66.2 °F62.6 °F88 %30.01 in6.2 miSouth (170°)4.6 mphScattered Clouds
2:30 AM66.2 °F62.6 °F88 %30.01 in6.2 miSouth (180°)4.6 mphScattered Clouds
3:00 AM68.0 °F64.4 °F88 %30.01 in6.2 miSouth (190°)5.8 mphScattered Clouds
3:00 AM68.0 °F64.0 °F81 %30.02 inSouth (190°)5.8 mph
3:30 AM69.8 °F62.6 °F78 %30.01 in6.2 miSouth (190°)6.9 mphMostly Cloudy
4:00 AM69.8 °F62.6 °F78 %30.01 in6.2 miSouth (190°)6.9 mph
4:30 AM69.8 °F62.6 °F78 %30.01 in6.2 miSSW (200°)6.9 mph
5:00 AM69.8 °F62.6 °F78 %30.04 in6.2 miSouth (170°)5.8 mphScattered Clouds
5:30 AM69.8 °F62.6 °F78 %30.04 in6.2 miSouth (190°)11.5 mphMostly Cloudy
6:00 AM68.0 °F64.4 °F88 %30.04 in6.2 miSouth (190°)10.4 mphMostly Cloudy
6:00 AM69.0 °F64.0 °F78 %30.05 inSouth (190°)10.4 mphOvercast
6:30 AM69.8 °F64.4 °F83 %30.06 in6.2 miSSW (200°)11.5 mphOvercast
7:00 AM69.8 °F64.4 °F83 %30.06 in6.2 miSouth (190°)13.8 mphOvercast
7:30 AM68.0 °F66.2 °F94 %30.09 in1.7 miSouth (190°)12.7 mphOvercast
8:00 AM68.0 °F66.2 °F94 %30.09 in6.2 miSSW (200°)12.7 mphOvercast
8:30 AM68.0 °F64.4 °F88 %30.09 in2.2 miSSW (200°)12.7 mphOvercast
9:00 AM68.0 °F66.2 °F94 %30.09 in6.2 miSW (230°)9.2 mphOvercast
9:00 AM68.0 °F66.0 °F90 %30.11 inSW (230°)9.2 mphOvercast
9:30 AM71.6 °F66.2 °F83 %30.09 in6.2 miSW (220°)9.2 mphOvercast
10:00 AM73.4 °F68.0 °F83 %30.09 in6.2 miSSW (210°)10.4 mphOvercast
10:30 AM73.4 °F66.2 °F78 %30.09 in6.2 miSSW (200°)11.5 mphOvercast
11:00 AM75.2 °F64.4 °F69 %30.09 in6.2 miSouth (180°)16.1 mphMostly Cloudy
11:30 AM77.0 °F60.8 °F57 %30.09 in6.2 miSSE (160°)19.6 mphMostly Cloudy
12:00 PM78.8 °F59.0 °F51 %30.09 in6.2 miSSE (160°)18.4 mphMostly Cloudy
12:00 PM78.0 °F60.0 °F43 %30.10 inSSE (160°)18.4 mphOvercast
12:30 PM80.6 °F60.8 °F51 %30.09 in6.2 miSSE (160°)20.7 mphMostly Cloudy
1:00 PM80.6 °F62.6 °F54 %30.06 in6.2 miSSE (150°)20.7 mphScattered Clouds
2:00 PM78.8 °F62.6 °F57 %30.06 in6.2 miSouth (170°)20.7 mphScattered Clouds
2:30 PM78.8 °F62.6 °F57 %30.06 in6.2 miSSE (160°)19.6 mphScattered Clouds
3:00 PM78.8 °F62.6 °F57 %30.06 in6.2 miSSE (160°)23.0 mphMostly Cloudy
3:00 PM79.0 °F62.0 °F47 %30.06 inSSE (160°)23.0 mph
3:30 PM78.8 °F62.6 °F57 %30.04 in6.2 miSSE (150°)21.9 mphScattered Clouds
4:00 PM77.0 °F64.4 °F65 %30.06 in6.2 miSSE (150°)19.6 mphMostly Cloudy
4:30 PM77.0 °F60.8 °F57 %30.06 in6.2 miSSE (160°)18.4 mphMostly Cloudy
5:00 PM77.0 °F60.8 °F57 %30.06 in6.2 miSouth (170°)18.4 mphScattered Clouds
5:30 PM75.2 °F60.8 °F61 %30.06 in6.2 miSSE (150°)19.6 mphScattered Clouds
6:00 PM75.2 °F60.8 °F61 %30.06 in6.2 miSSE (160°)17.3 mph28.8 mphScattered Clouds
6:00 PM74.0 °F61.0 °F54 %30.07 inSSE (160°)17.3 mph
6:30 PM73.4 °F60.8 °F65 %30.06 in6.2 miSouth (170°)15.0 mphScattered Clouds
7:00 PM73.4 °F60.8 °F65 %30.09 in6.2 miSouth (180°)10.4 mphOvercast
7:30 PM73.4 °F60.8 °F65 %30.09 in6.2 miSouth (190°)10.4 mphOvercast
8:00 PM73.4 °F60.8 °F65 %30.09 in6.2 miSouth (180°)10.4 mphMostly Cloudy
8:30 PM71.6 °F60.8 °F69 %30.09 in6.2 miSouth (190°)10.4 mphOvercast
9:00 PM71.6 °F59.0 °F64 %30.09 in6.2 miSouth (190°)10.4 mphOvercast
9:00 PM72.0 °F60.0 °F56 %30.11 inSSW (200°)10.4 mph
9:30 PM71.6 °F60.8 °F69 %30.09 in6.2 miSouth (170°)8.1 mphOvercast
10:00 PM71.6 °F60.8 °F69 %30.12 in6.2 miSouth (170°)8.1 mphOvercast
10:30 PM71.6 °F60.8 °F69 %30.09 in6.2 miSouth (180°)6.9 mphOvercast
11:00 PM71.6 °F59.0 °F64 %30.09 in6.2 miSSW (210°)9.2 mphOvercast
11:30 PM71.6 °F60.8 °F69 %30.09 in6.2 miSSW (200°)8.1 mphOvercast
Hourly data recorded from YLIS, located miles away from Lismore, New South Wales







STORIES FROM OUR PARTNERS